Date String (YYYY-MM-DD hh:mm:ss) UTC,Instrument flags,absolute air pressure of the measurement (hPa),sample flow rate (lpm),inlet stack bypass flow (lpm),air temperature of the measurement (°C),ambient temperature measured by the external sensor (°C),aerosol sample conditioner tube jacket temperature (°C),OPC LED temperature (°C),internal box temperature (°C),relative humidity of the measurement (%),span deviation,mass concentration of particles derived from Lorenz-Mie calculation of OPC scattering (μg/m³),mass concentration of particles derived from Lorenz-Mie calculation of OPC scattering (μg/m³),mass concentration of particles derived from Lorenz-Mie calculation of OPC scattering (μg/m³)
DateTimeUTC,F1_M11,P_M11,Q1_M11,Q2_M11,T1_M11,T2_M11,T3_M11,T4_M11,T5_M11,U1_M11,ZSPAN_M11,X0_M11,X2_M11,X1_M11
2023-11-14 20:00:00,SystemResetWarning,0830.1,5.01,000.00,027.9,027.1,000.0,035.9,029.5,6.8,0000.0,0005.06,0001.92,0001.53
2023-11-14 20:01:00,SystemResetWarning,0830.1,4.99,000.00,027.9,026.2,000.0,035.9,029.5,6.8,0000.0,0005.18,0001.95,0001.52
2023-11-14 20:02:00,SystemResetWarning,0830.1,4.99,000.00,027.8,024.3,000.0,035.9,029.1,6.5,0000.0,0005.38,0001.91,0001.51
2023-11-14 20:03:00,SystemResetWarning,0830.0,5.02,000.00,027.7,023.7,000.0,035.8,028.9,6.4,0000.0,0005.36,0001.89,0001.52
2023-11-14 20:04:00,SystemResetWarning,0830.0,5.00,000.00,027.6,024.0,000.0,035.8,028.6,6.8,0000.0,0005.20,0001.92,0001.53
2023-11-14 20:05:00,SystemResetWarning,0830.0,4.99,000.00,027.5,024.4,000.0,035.8,028.5,6.9,0000.0,0004.87,0001.98,0001.54
2023-11-14 20:06:00,SystemResetWarning,0830.0,5.00,000.00,027.4,024.8,000.0,035.7,028.6,6.9,0000.0,0004.80,0001.98,0001.54
2023-11-14 20:07:00,SystemResetWarning,0830.0,5.01,000.00,027.4,025.2,000.0,035.7,028.7,6.9,0000.0,0003.75,0001.97,0001.55
2023-11-14 20:08:00,SystemResetWarning,0830.1,5.01,000.00,027.5,025.6,000.0,035.7,028.8,6.8,0000.0,0003.65,0001.92,0001.54
2023-11-14 20:09:00,SystemResetWarning,0830.0,5.00,000.00,027.5,025.9,000.0,035.7,028.9,6.5,0000.0,0003.56,0001.88,0001.52
2023-11-14 20:10:00,SystemResetWarning,0830.1,5.00,000.00,027.5,026.1,000.0,035.7,029.0,6.7,0000.0,0003.37,0001.87,0001.52
2023-11-14 20:11:00,SystemResetWarning,0830.0,5.00,000.00,027.6,026.3,000.0,035.7,029.1,6.8,0000.0,0004.08,0001.87,0001.52
2023-11-14 20:12:00,SystemResetWarning,0830.1,5.00,000.00,027.6,026.5,000.0,035.7,029.2,6.7,0000.0,0005.23,0001.87,0001.53
2023-11-14 20:13:00,SystemResetWarning,0830.1,4.99,000.00,027.7,026.7,000.0,035.7,029.3,6.8,0000.0,0005.09,0001.88,0001.53
2023-11-14 20:14:00,SystemResetWarning,0830.1,5.00,000.00,027.7,026.8,000.0,035.8,029.3,6.8,0000.0,0005.06,0001.92,0001.53
2023-11-14 20:15:00,SystemResetWarning,0830.1,5.00,000.00,027.8,026.9,000.0,035.8,029.4,6.8,0000.0,0005.08,0001.92,0001.52
2023-11-14 20:16:00,SystemResetWarning,0830.1,5.01,000.00,027.8,027.0,000.0,035.8,029.4,6.7,0000.0,0004.81,0001.87,0001.51
2023-11-14 20:17:00,SystemResetWarning,0830.1,5.00,000.00,027.8,026.9,000.0,035.9,029.5,6.7,0000.0,0004.86,0001.88,0001.50
2023-11-14 20:18:00,SystemResetWarning,0830.1,4.98,000.00,027.8,025.2,000.0,035.8,029.3,6.7,0000.0,0004.95,0001.91,0001.50
2023-11-14 20:19:00,SystemResetWarning,0830.1,5.01,000.00,027.7,023.6,000.0,035.8,029.0,6.7,0000.0,0006.32,0001.94,0001.50
2023-11-14 20:20:00,SystemResetWarning,0830.1,5.01,000.00,027.6,023.7,000.0,035.8,028.8,6.7,0000.0,0006.45,0001.98,0001.51
2023-11-14 20:21:00,SystemResetWarning,0830.0,4.99,000.00,027.5,024.1,000.0,035.7,028.5,6.9,0000.0,0006.44,0001.98,0001.50
2023-11-14 20:22:00,SystemResetWarning,0830.0,5.00,000.00,027.4,024.6,000.0,035.7,028.5,6.9,0000.0,0005.97,0001.96,0001.49
2023-11-14 20:23:00,SystemResetWarning,0830.0,4.99,000.00,027.4,025.0,000.0,035.7,028.6,6.8,0000.0,0004.48,0001.92,0001.47
2023-11-14 20:24:00,SystemResetWarning,0830.0,5.01,000.00,027.4,025.4,000.0,035.7,028.8,6.9,0000.0,0004.55,0001.90,0001.47
2023-11-14 20:25:00,SystemResetWarning,0830.0,5.00,000.00,027.4,025.7,000.0,035.7,028.9,6.9,0000.0,0005.66,0001.89,0001.47
2023-11-14 20:26:00,SystemResetWarning,0830.0,5.00,000.00,027.4,025.9,000.0,035.6,029.0,6.9,0000.0,0006.50,0001.93,0001.48
2023-11-14 20:27:00,SystemResetWarning,0830.0,5.00,000.00,027.5,026.2,000.0,035.7,029.0,6.9,0000.0,0007.03,0001.97,0001.48
2023-11-14 20:28:00,SystemResetWarning,0830.1,4.99,000.00,027.5,026.4,000.0,035.7,029.1,6.8,0000.0,0007.19,0001.94,0001.48
2023-11-14 20:29:00,SystemResetWarning,0830.0,5.00,000.00,027.6,026.5,000.0,035.7,029.2,6.8,0000.0,0007.14,0001.88,0001.47
2023-11-14 20:30:00,SystemResetWarning,0830.0,5.00,000.00,027.6,026.7,000.0,035.7,029.3,6.8,0000.0,0006.08,0001.92,0001.46
2023-11-14 20:31:00,SystemResetWarning,0830.0,5.00,000.00,027.7,026.8,000.0,035.7,029.3,6.1,0000.0,0006.14,0001.95,0001.47
2023-11-14 20:32:00,SystemResetWarning,0830.0,5.00,000.00,027.7,026.9,000.0,035.8,029.4,6.0,0000.0,0006.37,0002.01,0001.47
2023-11-14 20:33:00,SystemResetWarning,0830.0,5.00,000.00,027.8,027.0,000.0,035.8,029.4,6.1,0000.0,0006.90,0002.07,0001.48
2023-11-14 20:34:00,SystemResetWarning,0830.0,4.99,000.00,027.8,026.4,000.0,035.8,029.4,5.9,0000.0,0006.87,0002.09,0001.49
2023-11-14 20:35:00,SystemResetWarning,0829.9,5.00,000.00,027.7,024.5,000.0,035.8,029.0,5.9,0000.0,0006.76,0002.12,0001.48
2023-11-14 20:36:00,SystemResetWarning,0829.9,5.01,000.00,027.6,023.7,000.0,035.7,028.8,6.0,0000.0,0005.57,0002.11,0001.49
2023-11-14 20:37:00,SystemResetWarning,0829.9,5.02,000.00,027.5,024.0,000.0,035.7,028.6,6.0,0000.0,0004.86,0002.05,0001.46
2023-11-14 20:38:00,SystemResetWarning,0829.9,5.00,000.00,027.4,024.4,000.0,035.7,028.4,6.0,0000.0,0004.35,0002.02,0001.45
2023-11-14 20:39:00,SystemResetWarning,0829.9,5.00,000.00,027.4,024.8,000.0,035.6,028.5,6.1,0000.0,0004.05,0002.00,0001.43
2023-11-14 20:40:00,SystemResetWarning,0829.9,5.01,000.00,027.4,025.2,000.0,035.6,028.7,6.1,0000.0,0004.59,0002.03,0001.42
2023-11-14 20:41:00,SystemResetWarning,0829.9,5.01,000.00,027.4,025.5,000.0,035.6,028.8,6.0,0000.0,0004.71,0001.93,0001.40
2023-11-14 20:42:00,SystemResetWarning,0829.9,5.00,000.00,027.4,025.8,000.0,035.6,028.9,6.0,0000.0,0006.48,0001.85,0001.37
2023-11-14 20:43:00,SystemResetWarning,0829.9,5.00,000.00,027.4,026.1,000.0,035.6,029.0,5.9,0000.0,0006.60,0001.74,0001.34
2023-11-14 20:44:00,SystemResetWarning,0829.9,4.99,000.00,027.5,026.3,000.0,035.6,029.1,6.0,0000.0,0006.72,0001.69,0001.32
2023-11-14 20:45:00,SystemResetWarning,0829.9,4.99,000.00,027.5,026.4,000.0,035.7,029.1,6.0,0000.0,0007.05,0001.66,0001.30
2023-11-14 20:46:00,SystemResetWarning,0829.9,5.00,000.00,027.6,026.6,000.0,035.7,029.2,5.9,0000.0,0007.25,0001.64,0001.29
2023-11-14 20:47:00,SystemResetWarning,0829.9,5.01,000.00,027.6,026.7,000.0,035.7,029.3,5.9,0000.0,0007.12,0001.61,0001.28
2023-11-14 20:48:00,SystemResetWarning,0829.8,5.00,000.00,027.7,026.8,000.0,035.7,029.3,5.8,0000.0,0007.00,0001.61,0001.27
2023-11-14 20:49:00,SystemResetWarning,0829.8,5.01,000.00,027.7,026.9,000.0,035.8,029.4,5.9,0000.0,0007.27,0001.63,0001.27
2023-11-14 20:50:00,SystemResetWarning,0829.8,5.00,000.00,027.8,027.0,000.0,035.8,029.5,6.0,0000.0,0007.27,0001.63,0001.27
2023-11-14 20:51:00,SystemResetWarning,0829.8,5.00,000.00,027.8,027.1,000.0,035.8,029.5,6.0,0000.0,0006.86,0001.61,0001.26
2023-11-14 20:52:00,SystemResetWarning,0829.8,5.00,000.00,027.9,027.2,000.0,035.9,029.5,6.1,0000.0,0006.40,0001.62,0001.26
2023-11-14 20:53:00,SystemResetWarning,0829.9,5.00,000.00,027.9,027.2,000.0,035.9,029.6,6.1,0000.0,0004.82,0001.69,0001.27
2023-11-14 20:54:00,SystemResetWarning,0829.8,4.98,000.00,027.9,026.0,000.0,035.9,029.5,6.1,0000.0,0004.34,0001.74,0001.27
2023-11-14 20:55:00,SystemResetWarning,0829.8,5.01,000.00,027.8,024.1,000.0,035.9,029.1,6.1,0000.0,0003.45,0001.72,0001.29
2023-11-14 20:56:00,SystemResetWarning,0829.8,5.01,000.00,027.7,023.8,000.0,035.8,028.9,6.0,0000.0,0003.03,0001.69,0001.28
2023-11-14 20:57:00,SystemResetWarning,0829.8,5.00,000.00,027.6,024.2,000.0,035.8,028.6,6.0,0000.0,0002.76,0001.67,0001.27
2023-11-14 20:58:00,SystemResetWarning,0829.8,5.00,000.00,027.5,024.6,000.0,035.8,028.6,6.1,0000.0,0005.30,0001.68,0001.27
2023-11-14 20:59:00,SystemResetWarning,0829.8,5.00,000.00,027.5,025.0,000.0,035.7,028.7,6.0,0000.0,0005.32,0001.70,0001.27
